Year,Month,Day,Hour,Minute,Value (Times are PST for temperature in C)
2009,08,06,00,00,12.30
2009,08,06,00,01,12.30
2009,08,06,00,02,12.20
2009,08,06,00,03,12.20
2009,08,06,00,04,12.20
2009,08,06,00,05,12.10
2009,08,06,00,06,12.10
2009,08,06,00,07,12.10
2009,08,06,00,08,12.10
2009,08,06,00,09,12.00
2009,08,06,00,10,12.00
2009,08,06,00,11,12.00
2009,08,06,00,12,12.00
2009,08,06,00,13,11.90
2009,08,06,00,14,11.90
2009,08,06,00,15,11.90
2009,08,06,00,16,11.90
2009,08,06,00,17,11.80
2009,08,06,00,18,11.80
2009,08,06,00,19,11.80
2009,08,06,00,20,11.80
2009,08,06,00,21,11.80
2009,08,06,00,22,11.80
2009,08,06,00,23,11.70
2009,08,06,00,24,11.70
2009,08,06,00,25,11.70
2009,08,06,00,26,11.70
2009,08,06,00,27,11.70
2009,08,06,00,28,11.60
2009,08,06,00,29,11.60
2009,08,06,00,30,11.60
2009,08,06,00,31,11.60
2009,08,06,00,32,11.60
2009,08,06,00,33,11.60
2009,08,06,00,34,11.50
2009,08,06,00,35,11.50
2009,08,06,00,36,11.50
2009,08,06,00,37,11.50
2009,08,06,00,38,11.40
2009,08,06,00,39,11.40
2009,08,06,00,40,11.40
2009,08,06,00,41,11.40
2009,08,06,00,42,11.40
2009,08,06,00,43,11.40
2009,08,06,00,44,11.30
2009,08,06,00,45,11.30
2009,08,06,00,46,11.30
2009,08,06,00,47,11.30
2009,08,06,00,48,11.30
2009,08,06,00,49,11.30
2009,08,06,00,50,11.30
2009,08,06,00,51,11.30
2009,08,06,00,52,11.30
2009,08,06,00,53,11.30
2009,08,06,00,54,11.30
2009,08,06,00,55,11.20
2009,08,06,00,56,11.20
2009,08,06,00,57,11.20
2009,08,06,00,58,11.20
2009,08,06,00,59,11.20
2009,08,06,01,00,11.20
2009,08,06,01,01,11.20
2009,08,06,01,02,11.20
2009,08,06,01,03,11.20
2009,08,06,01,04,11.10
2009,08,06,01,05,11.10
2009,08,06,01,06,11.10
2009,08,06,01,07,11.10
2009,08,06,01,08,11.10
2009,08,06,01,09,11.10
2009,08,06,01,10,11.10
2009,08,06,01,11,11.00
2009,08,06,01,12,11.00
2009,08,06,01,13,11.00
2009,08,06,01,14,11.00
2009,08,06,01,15,11.00
2009,08,06,01,16,10.90
2009,08,06,01,17,10.90
2009,08,06,01,18,10.90
2009,08,06,01,19,10.90
2009,08,06,01,20,10.90
2009,08,06,01,21,10.90
2009,08,06,01,22,10.90
2009,08,06,01,23,10.90
2009,08,06,01,24,10.90
2009,08,06,01,25,10.90
2009,08,06,01,26,10.90
2009,08,06,01,27,10.90
2009,08,06,01,28,10.90
2009,08,06,01,29,10.90
2009,08,06,01,30,10.80
2009,08,06,01,31,10.80
2009,08,06,01,32,10.80
2009,08,06,01,33,10.80
2009,08,06,01,34,10.80
2009,08,06,01,35,10.80
2009,08,06,01,36,10.80
2009,08,06,01,37,10.80
2009,08,06,01,38,10.80
2009,08,06,01,39,10.70
2009,08,06,01,40,10.70
2009,08,06,01,41,10.70
2009,08,06,01,42,10.70
2009,08,06,01,43,10.70
2009,08,06,01,44,10.70
2009,08,06,01,45,10.70
2009,08,06,01,46,10.70
2009,08,06,01,47,10.60
2009,08,06,01,48,10.60
2009,08,06,01,49,10.60
2009,08,06,01,50,10.60
2009,08,06,01,51,10.60
2009,08,06,01,52,10.60
2009,08,06,01,53,10.60
2009,08,06,01,54,10.60
2009,08,06,01,55,10.50
2009,08,06,01,56,10.50
2009,08,06,01,57,10.50
2009,08,06,01,58,10.50
2009,08,06,01,59,10.50
2009,08,06,02,00,10.40
2009,08,06,02,01,10.40
2009,08,06,02,02,10.40
2009,08,06,02,03,10.40
2009,08,06,02,04,10.40
2009,08,06,02,05,10.40
2009,08,06,02,06,10.40
2009,08,06,02,07,10.40
2009,08,06,02,08,10.40
2009,08,06,02,09,10.40
2009,08,06,02,10,10.40
2009,08,06,02,11,10.30
2009,08,06,02,12,10.40
2009,08,06,02,13,10.40
2009,08,06,02,14,10.30
2009,08,06,02,15,10.30
2009,08,06,02,16,10.30
2009,08,06,02,17,10.30
2009,08,06,02,18,10.30
2009,08,06,02,19,10.30
2009,08,06,02,20,10.30
2009,08,06,02,21,10.30
2009,08,06,02,22,10.30
2009,08,06,02,23,10.30
2009,08,06,02,24,10.30
2009,08,06,02,25,10.30
2009,08,06,02,26,10.30
2009,08,06,02,27,10.30
2009,08,06,02,28,10.30
2009,08,06,02,29,10.30
2009,08,06,02,30,10.30
2009,08,06,02,31,10.30
2009,08,06,02,32,10.30
2009,08,06,02,33,10.20
2009,08,06,02,34,10.20
2009,08,06,02,35,10.20
2009,08,06,02,36,10.20
2009,08,06,02,37,10.20
2009,08,06,02,38,10.20
2009,08,06,02,39,10.20
2009,08,06,02,40,10.10
2009,08,06,02,41,10.10
2009,08,06,02,42,10.10
2009,08,06,02,43,10.10
2009,08,06,02,44,10.10
2009,08,06,02,45,10.10
2009,08,06,02,46,10.00
2009,08,06,02,47,10.00
2009,08,06,02,48,10.00
2009,08,06,02,49,9.90
2009,08,06,02,50,9.90
2009,08,06,02,51,9.90
2009,08,06,02,52,9.90
2009,08,06,02,53,9.90
2009,08,06,02,54,9.90
2009,08,06,02,55,9.90
2009,08,06,02,56,9.80
2009,08,06,02,57,9.80
2009,08,06,02,58,9.80
2009,08,06,02,59,9.80
2009,08,06,03,00,9.80
2009,08,06,03,01,9.80
2009,08,06,03,02,9.80
2009,08,06,03,03,9.80
2009,08,06,03,04,9.80
2009,08,06,03,05,9.80
2009,08,06,03,06,9.80
2009,08,06,03,07,9.80
2009,08,06,03,08,9.80
2009,08,06,03,09,9.80
2009,08,06,03,10,9.80
2009,08,06,03,11,9.70
2009,08,06,03,12,9.70
2009,08,06,03,13,9.70
2009,08,06,03,14,9.70
2009,08,06,03,15,9.70
2009,08,06,03,16,9.70
2009,08,06,03,17,9.60
2009,08,06,03,18,9.60
2009,08,06,03,19,9.60
2009,08,06,03,20,9.60
2009,08,06,03,21,9.60
2009,08,06,03,22,9.60
2009,08,06,03,23,9.60
2009,08,06,03,24,9.60
2009,08,06,03,25,9.50
2009,08,06,03,26,9.50
2009,08,06,03,27,9.50
2009,08,06,03,28,9.50
2009,08,06,03,29,9.50
2009,08,06,03,30,9.50
2009,08,06,03,31,9.50
2009,08,06,03,32,9.40
2009,08,06,03,33,9.40
2009,08,06,03,34,9.40
2009,08,06,03,35,9.40
2009,08,06,03,36,9.40
2009,08,06,03,37,9.40
2009,08,06,03,38,9.40
2009,08,06,03,39,9.40
2009,08,06,03,40,9.40
2009,08,06,03,41,9.30
2009,08,06,03,42,9.30
2009,08,06,03,43,9.30
2009,08,06,03,44,9.30
2009,08,06,03,45,9.30
2009,08,06,03,46,9.30
2009,08,06,03,47,9.30
2009,08,06,03,48,9.30
2009,08,06,03,49,9.30
2009,08,06,03,50,9.30
2009,08,06,03,51,9.30
2009,08,06,03,52,9.20
2009,08,06,03,53,9.20
2009,08,06,03,54,9.20
2009,08,06,03,55,9.20
2009,08,06,03,56,9.20
2009,08,06,03,57,9.20
2009,08,06,03,58,9.20
2009,08,06,03,59,9.20
2009,08,06,04,00,9.20
2009,08,06,04,01,9.20
2009,08,06,04,02,9.20
2009,08,06,04,03,9.20
2009,08,06,04,04,9.20
2009,08,06,04,05,9.10
2009,08,06,04,17,9.20
2009,08,06,04,18,9.20
2009,08,06,04,19,9.10
2009,08,06,04,20,9.10
2009,08,06,04,21,9.10
2009,08,06,04,22,9.10
2009,08,06,04,23,9.10
2009,08,06,04,24,9.10
2009,08,06,04,25,9.10
2009,08,06,04,26,9.10
2009,08,06,04,27,9.10
2009,08,06,04,28,9.10
2009,08,06,04,29,9.10
2009,08,06,04,30,9.10
2009,08,06,04,31,9.10
2009,08,06,04,32,9.10
2009,08,06,04,33,9.10
2009,08,06,04,34,9.10
2009,08,06,04,35,9.00
2009,08,06,04,36,9.00
2009,08,06,04,37,9.00
2009,08,06,04,38,9.00
2009,08,06,04,39,9.00
2009,08,06,04,40,8.90
2009,08,06,04,41,8.90
2009,08,06,04,42,8.90
2009,08,06,04,43,8.90
2009,08,06,04,44,8.90
2009,08,06,04,45,8.90
2009,08,06,04,46,8.80
2009,08,06,04,47,8.80
2009,08,06,04,48,8.80
2009,08,06,04,49,8.80
2009,08,06,04,50,8.80
2009,08,06,04,51,8.80
2009,08,06,04,52,8.80
2009,08,06,04,53,8.70
2009,08,06,04,54,8.70
2009,08,06,04,55,8.70
2009,08,06,04,56,8.70
2009,08,06,04,57,8.70
2009,08,06,04,58,8.70
2009,08,06,04,59,8.70
2009,08,06,05,00,8.70
2009,08,06,05,01,8.70
2009,08,06,05,02,8.70
2009,08,06,05,03,8.70
2009,08,06,05,04,8.70
2009,08,06,05,05,8.70
2009,08,06,05,06,8.70
2009,08,06,05,07,8.70
2009,08,06,05,08,8.70
2009,08,06,05,09,8.70
2009,08,06,05,10,8.70
2009,08,06,05,11,8.70
2009,08,06,05,12,8.80
2009,08,06,05,13,8.80
2009,08,06,05,14,8.80
2009,08,06,05,15,8.80
2009,08,06,05,16,8.80
2009,08,06,05,17,8.80
2009,08,06,05,18,8.80
2009,08,06,05,19,8.80
2009,08,06,05,20,8.80
2009,08,06,05,21,8.90
2009,08,06,05,22,8.90
2009,08,06,05,23,8.90
2009,08,06,05,24,8.90
2009,08,06,05,25,8.90
2009,08,06,05,26,8.90
2009,08,06,05,27,8.90
2009,08,06,05,28,8.90
2009,08,06,05,29,8.90
2009,08,06,05,30,8.90
2009,08,06,05,31,8.90
2009,08,06,05,32,8.90
2009,08,06,05,33,8.90
2009,08,06,05,34,8.90
2009,08,06,05,35,8.80
2009,08,06,05,36,8.80
2009,08,06,05,37,8.80
2009,08,06,05,38,8.80
2009,08,06,05,39,8.80
2009,08,06,05,40,8.80
2009,08,06,05,41,8.80
2009,08,06,05,42,8.80
2009,08,06,05,43,8.80
2009,08,06,05,44,8.80
2009,08,06,05,45,8.80
2009,08,06,05,46,8.80
2009,08,06,05,47,8.80
2009,08,06,05,48,8.80
2009,08,06,05,49,8.80
2009,08,06,05,50,8.80
2009,08,06,05,51,8.80
2009,08,06,05,52,8.80
2009,08,06,05,53,8.80
2009,08,06,05,54,8.80
2009,08,06,05,55,8.80
2009,08,06,05,56,8.80
2009,08,06,05,57,8.80
2009,08,06,05,58,8.80
2009,08,06,05,59,8.80
2009,08,06,06,00,8.80
2009,08,06,06,01,8.80
2009,08,06,06,02,8.80
2009,08,06,06,03,8.80
2009,08,06,06,04,8.80
2009,08,06,06,05,8.80
2009,08,06,06,06,8.80
2009,08,06,06,07,8.80
2009,08,06,06,08,8.80
2009,08,06,06,09,8.80
2009,08,06,06,10,8.80
2009,08,06,06,11,8.80
2009,08,06,06,12,8.70
2009,08,06,06,13,8.70
2009,08,06,06,14,8.70
2009,08,06,06,15,8.70
2009,08,06,06,16,8.70
2009,08,06,06,17,8.70
2009,08,06,06,18,8.70
2009,08,06,06,19,8.70
2009,08,06,06,20,8.70
2009,08,06,06,21,8.70
2009,08,06,06,22,8.70
2009,08,06,06,23,8.70
2009,08,06,06,24,8.70
2009,08,06,06,25,8.80
2009,08,06,06,26,8.80
2009,08,06,06,27,8.80
2009,08,06,06,28,8.80
2009,08,06,06,29,8.80
2009,08,06,06,30,8.80
2009,08,06,06,31,8.80
2009,08,06,06,32,8.80
2009,08,06,06,33,8.80
2009,08,06,06,34,8.80
2009,08,06,06,35,8.80
2009,08,06,06,36,8.80
2009,08,06,06,37,8.80
2009,08,06,06,38,8.80
2009,08,06,06,39,8.90
2009,08,06,06,40,8.90
2009,08,06,06,41,8.90
2009,08,06,06,42,8.90
2009,08,06,06,43,9.00
2009,08,06,06,44,9.00
2009,08,06,06,45,9.10
2009,08,06,06,46,9.10
2009,08,06,06,47,9.10
2009,08,06,06,48,9.10
2009,08,06,06,49,9.20
2009,08,06,06,50,9.20
2009,08,06,06,51,9.20
2009,08,06,06,52,9.20
2009,08,06,06,53,9.20
2009,08,06,06,54,9.30
2009,08,06,06,55,9.30
2009,08,06,06,56,9.30
2009,08,06,06,57,9.30
2009,08,06,06,58,9.30
2009,08,06,06,59,9.30
2009,08,06,07,00,9.30
2009,08,06,07,01,9.40
2009,08,06,07,02,9.40
2009,08,06,07,03,9.40
2009,08,06,07,04,9.50
2009,08,06,07,05,9.50
2009,08,06,07,06,9.50
2009,08,06,07,07,9.60
2009,08,06,07,08,9.60
2009,08,06,07,09,9.60
2009,08,06,07,10,9.60
2009,08,06,07,11,9.70
2009,08,06,07,12,9.70
2009,08,06,07,13,9.70
2009,08,06,07,14,9.80
2009,08,06,07,15,9.80
2009,08,06,07,16,9.80
2009,08,06,07,17,9.90
2009,08,06,07,18,9.90
2009,08,06,07,19,10.00
2009,08,06,07,20,10.00
2009,08,06,07,21,10.10
2009,08,06,07,22,10.10
2009,08,06,07,23,10.20
2009,08,06,07,24,10.20
2009,08,06,07,25,10.20
2009,08,06,07,26,10.30
2009,08,06,07,27,10.30
2009,08,06,07,28,10.40
2009,08,06,07,29,10.40
2009,08,06,07,30,10.40
2009,08,06,07,31,10.50
2009,08,06,07,32,10.50
2009,08,06,07,33,10.60
2009,08,06,07,34,10.60
2009,08,06,07,35,10.60
2009,08,06,07,36,10.70
2009,08,06,07,37,10.70
2009,08,06,07,38,10.80
2009,08,06,07,39,10.80
2009,08,06,07,40,10.80
2009,08,06,07,41,10.90
2009,08,06,07,42,10.90
2009,08,06,07,43,10.90
2009,08,06,07,44,11.00
2009,08,06,07,45,11.10
2009,08,06,07,46,11.10
2009,08,06,07,47,11.10
2009,08,06,07,48,11.20
2009,08,06,07,49,11.20
2009,08,06,07,50,11.20
2009,08,06,07,51,11.30
2009,08,06,07,52,11.30
2009,08,06,07,53,11.30
2009,08,06,07,54,11.40
2009,08,06,07,55,11.40
2009,08,06,07,56,11.40
2009,08,06,07,57,11.40
2009,08,06,07,58,11.50
2009,08,06,07,59,11.50
2009,08,06,08,00,11.50
2009,08,06,08,01,11.60
2009,08,06,08,02,11.60
2009,08,06,08,03,11.60
2009,08,06,08,04,11.70
2009,08,06,08,05,11.70
2009,08,06,08,06,11.70
2009,08,06,08,07,11.80
2009,08,06,08,08,11.80
2009,08,06,08,09,11.80
2009,08,06,08,10,11.80
2009,08,06,08,11,11.90
2009,08,06,08,12,11.90
2009,08,06,08,13,11.90
2009,08,06,08,14,12.00
2009,08,06,08,15,12.00
2009,08,06,08,16,12.10
2009,08,06,08,17,12.10
2009,08,06,08,18,12.20
2009,08,06,08,19,12.20
2009,08,06,08,20,12.20
2009,08,06,08,21,12.20
2009,08,06,08,22,12.30
2009,08,06,08,23,12.30
2009,08,06,08,24,12.30
2009,08,06,08,25,12.30
2009,08,06,08,26,12.40
2009,08,06,08,27,12.40
2009,08,06,08,28,12.40
2009,08,06,08,29,12.40
2009,08,06,08,30,12.50
2009,08,06,08,31,12.50
2009,08,06,08,32,12.50
2009,08,06,08,33,12.60
2009,08,06,08,34,12.60
2009,08,06,08,35,12.60
2009,08,06,08,36,12.70
2009,08,06,08,37,12.70
2009,08,06,08,38,12.70
2009,08,06,08,39,12.80
2009,08,06,08,40,12.80
2009,08,06,08,41,12.80
2009,08,06,08,42,12.90
2009,08,06,08,43,12.90
2009,08,06,08,44,12.90
2009,08,06,08,45,12.90
2009,08,06,08,46,13.00
2009,08,06,08,47,13.00
2009,08,06,08,48,13.10
2009,08,06,08,49,13.10
2009,08,06,08,50,13.10
2009,08,06,08,51,13.10
2009,08,06,08,52,13.20
2009,08,06,08,53,13.20
2009,08,06,08,54,13.20
2009,08,06,08,55,13.20
2009,08,06,08,56,13.30
2009,08,06,08,57,13.30
2009,08,06,08,58,13.30
2009,08,06,08,59,13.30
2009,08,06,09,00,13.30
2009,08,06,09,01,13.30
2009,08,06,09,02,13.30
2009,08,06,09,03,13.30
2009,08,06,09,04,13.40
2009,08,06,09,05,13.40
2009,08,06,09,06,13.40
2009,08,06,09,07,13.40
2009,08,06,09,08,13.40
2009,08,06,09,09,13.40
2009,08,06,09,10,13.40
2009,08,06,09,11,13.40
2009,08,06,09,12,13.40
2009,08,06,09,13,13.40
2009,08,06,09,14,13.40
2009,08,06,09,15,13.40
2009,08,06,09,16,13.40
2009,08,06,09,17,13.40
2009,08,06,09,18,13.50
2009,08,06,09,19,13.50
2009,08,06,09,20,13.50
2009,08,06,09,21,13.50
2009,08,06,09,22,13.40
2009,08,06,09,23,13.50
2009,08,06,09,24,13.50
2009,08,06,09,25,13.50
2009,08,06,09,26,13.50
2009,08,06,09,27,13.50
2009,08,06,09,28,13.50
2009,08,06,09,29,13.50
2009,08,06,09,30,13.50
2009,08,06,09,31,13.50
2009,08,06,09,32,13.40
2009,08,06,09,33,13.40
2009,08,06,09,34,13.40
2009,08,06,09,35,13.40
2009,08,06,09,36,13.40
2009,08,06,09,37,13.50
2009,08,06,09,38,13.50
2009,08,06,09,39,13.50
2009,08,06,09,40,13.50
2009,08,06,09,41,13.50
2009,08,06,09,42,13.50
2009,08,06,09,43,13.50
2009,08,06,09,44,13.50
2009,08,06,09,45,13.50
2009,08,06,09,46,13.40
2009,08,06,09,47,13.40
2009,08,06,09,48,13.40
2009,08,06,09,49,13.40
2009,08,06,09,50,13.40
2009,08,06,09,51,13.40
2009,08,06,09,52,13.40
2009,08,06,09,53,13.40
2009,08,06,09,54,13.40
2009,08,06,09,55,13.40
2009,08,06,09,56,13.40
2009,08,06,09,57,13.40
2009,08,06,09,58,13.40
2009,08,06,09,59,13.40
2009,08,06,10,00,13.40
2009,08,06,10,01,13.40
2009,08,06,10,02,13.40
2009,08,06,10,03,13.40
2009,08,06,10,04,13.40
2009,08,06,10,05,13.40
2009,08,06,10,06,13.40
2009,08,06,10,07,13.40
2009,08,06,10,08,13.40
2009,08,06,10,09,13.40
2009,08,06,10,10,13.40
2009,08,06,10,11,13.50
2009,08,06,10,12,13.50
2009,08,06,10,13,13.60
2009,08,06,10,14,13.60
2009,08,06,10,15,13.60
2009,08,06,10,16,13.60
2009,08,06,10,17,13.60
2009,08,06,10,18,13.70
2009,08,06,10,19,13.70
2009,08,06,10,20,13.70
2009,08,06,10,21,13.70
2009,08,06,10,22,13.70
2009,08,06,10,23,13.70
2009,08,06,10,24,13.80
2009,08,06,10,25,13.80
2009,08,06,10,26,13.80
2009,08,06,10,27,13.80
2009,08,06,10,28,13.80
2009,08,06,10,29,13.80
2009,08,06,10,30,13.80
2009,08,06,10,31,13.80
2009,08,06,10,32,13.80
2009,08,06,10,33,13.80
2009,08,06,10,34,13.80
2009,08,06,10,35,13.80
2009,08,06,10,36,13.80
2009,08,06,10,37,13.80
2009,08,06,10,38,13.80
2009,08,06,10,39,13.80
2009,08,06,10,40,13.80
2009,08,06,10,41,13.80
2009,08,06,10,42,13.80
2009,08,06,10,43,13.90
2009,08,06,10,44,13.80
2009,08,06,10,45,13.80
2009,08,06,10,46,13.80
2009,08,06,10,47,13.80
2009,08,06,10,48,13.80
2009,08,06,10,49,13.80
2009,08,06,10,50,13.90
2009,08,06,10,51,13.90
2009,08,06,10,52,13.90
2009,08,06,10,53,14.00
2009,08,06,10,54,14.00
2009,08,06,10,55,14.10
2009,08,06,10,56,14.10
2009,08,06,10,57,14.20
2009,08,06,10,58,14.20
2009,08,06,10,59,14.30
2009,08,06,11,00,14.30
2009,08,06,11,01,14.30
2009,08,06,11,02,14.30
2009,08,06,11,03,14.30
2009,08,06,11,04,14.40
2009,08,06,11,05,14.40
2009,08,06,11,06,14.50
2009,08,06,11,07,14.60
2009,08,06,11,08,14.70
2009,08,06,11,09,14.80
2009,08,06,11,10,14.90
2009,08,06,11,11,15.00
2009,08,06,11,12,15.00
2009,08,06,11,13,15.00
2009,08,06,11,14,15.00
2009,08,06,11,15,15.10
2009,08,06,11,16,15.10
2009,08,06,11,17,15.20
2009,08,06,11,18,15.20
2009,08,06,11,19,15.20
2009,08,06,11,20,15.30
2009,08,06,11,21,15.30
2009,08,06,11,22,15.20
2009,08,06,11,23,15.20
2009,08,06,11,24,15.20
2009,08,06,11,25,15.20
2009,08,06,11,26,15.30
2009,08,06,11,27,15.30
2009,08,06,11,28,15.30
2009,08,06,11,29,15.30
2009,08,06,11,30,15.30
2009,08,06,11,31,15.30
2009,08,06,11,32,15.30
2009,08,06,11,33,15.30
2009,08,06,11,34,15.30
2009,08,06,11,35,15.20
2009,08,06,11,36,15.20
2009,08,06,11,37,15.20
2009,08,06,11,38,15.30
2009,08,06,11,39,15.30
2009,08,06,11,40,15.40
2009,08,06,11,41,15.50
2009,08,06,11,42,15.50
2009,08,06,11,43,15.60
2009,08,06,11,44,15.60
2009,08,06,11,45,15.60
2009,08,06,11,46,15.60
2009,08,06,11,47,15.60
2009,08,06,11,48,15.60
2009,08,06,11,49,15.70
2009,08,06,11,50,15.70
2009,08,06,11,51,15.70
2009,08,06,11,52,15.80
2009,08,06,11,53,15.80
2009,08,06,11,54,15.80
2009,08,06,11,55,15.80
2009,08,06,11,56,15.90
2009,08,06,11,57,15.90
2009,08,06,11,58,16.00
2009,08,06,11,59,16.00
2009,08,06,12,00,16.00
2009,08,06,12,01,15.90
2009,08,06,12,02,16.00
2009,08,06,12,03,16.00
2009,08,06,12,04,16.00
2009,08,06,12,05,16.00
2009,08,06,12,06,16.00
2009,08,06,12,07,16.00
2009,08,06,12,08,16.00
2009,08,06,12,09,16.10
2009,08,06,12,10,16.20
2009,08,06,12,11,16.30
2009,08,06,12,12,16.40
2009,08,06,12,13,16.50
2009,08,06,12,14,16.60
2009,08,06,12,15,16.70
2009,08,06,12,16,16.70
2009,08,06,12,17,16.60
2009,08,06,12,18,16.50
2009,08,06,12,19,16.50
2009,08,06,12,20,16.50
2009,08,06,12,21,16.60
2009,08,06,12,22,16.60
2009,08,06,12,23,16.60
2009,08,06,12,24,16.70
2009,08,06,12,25,16.70
2009,08,06,12,26,16.90
2009,08,06,12,27,16.90
2009,08,06,12,28,16.90
2009,08,06,12,29,16.90
2009,08,06,12,30,17.00
2009,08,06,12,31,17.10
2009,08,06,12,32,17.10
2009,08,06,12,33,17.10
2009,08,06,12,34,17.10
2009,08,06,12,35,17.10
2009,08,06,12,36,17.10
2009,08,06,12,37,17.10
2009,08,06,12,38,17.20
2009,08,06,12,39,17.20
2009,08,06,12,40,17.30
2009,08,06,12,41,17.30
2009,08,06,12,42,17.30
2009,08,06,12,43,17.30
2009,08,06,12,44,17.40
2009,08,06,12,45,17.50
2009,08,06,12,46,17.60
2009,08,06,12,47,17.70
2009,08,06,12,48,17.70
2009,08,06,12,49,17.80
2009,08,06,12,50,17.90
2009,08,06,12,51,17.90
2009,08,06,12,52,18.00
2009,08,06,12,53,18.10
2009,08,06,12,54,18.10
2009,08,06,12,55,18.10
2009,08,06,12,56,18.20
2009,08,06,12,57,18.20
2009,08,06,12,58,18.30
2009,08,06,12,59,18.40
2009,08,06,13,00,18.50
2009,08,06,13,01,18.50
2009,08,06,13,02,18.50
2009,08,06,13,03,18.50
2009,08,06,13,04,18.60
2009,08,06,13,05,18.60
2009,08,06,13,06,18.60
2009,08,06,13,07,18.50
2009,08,06,13,08,18.50
2009,08,06,13,09,18.40
2009,08,06,13,10,18.40
2009,08,06,13,11,18.40
2009,08,06,13,12,18.50
2009,08,06,13,13,18.60
2009,08,06,13,14,18.70
2009,08,06,13,15,18.60
2009,08,06,13,16,18.60
2009,08,06,13,17,18.50
2009,08,06,13,18,18.40
2009,08,06,13,19,18.40
2009,08,06,13,20,18.30
2009,08,06,13,21,18.30
2009,08,06,13,22,18.30
2009,08,06,13,23,18.30
2009,08,06,13,24,18.40
2009,08,06,13,25,18.40
2009,08,06,13,26,18.40
2009,08,06,13,27,18.40
2009,08,06,13,28,18.40
2009,08,06,13,29,18.20
2009,08,06,13,30,18.20
2009,08,06,13,31,18.10
2009,08,06,13,32,18.10
2009,08,06,13,33,18.10
2009,08,06,13,34,18.10
2009,08,06,13,35,18.10
2009,08,06,13,36,18.10
2009,08,06,13,37,18.10
2009,08,06,13,38,18.10
2009,08,06,13,39,18.20
2009,08,06,13,40,18.30
2009,08,06,13,41,18.40
2009,08,06,13,42,18.50
2009,08,06,13,43,18.50
2009,08,06,13,44,18.50
2009,08,06,13,45,18.60
2009,08,06,13,46,18.60
2009,08,06,13,47,18.60
2009,08,06,13,48,18.70
2009,08,06,13,49,18.80
2009,08,06,13,50,18.90
2009,08,06,13,51,19.00
2009,08,06,13,52,18.90
2009,08,06,13,53,18.90
2009,08,06,13,54,18.90
2009,08,06,13,55,18.90
2009,08,06,13,56,18.90
2009,08,06,13,57,18.90
2009,08,06,13,58,19.00
2009,08,06,13,59,19.20
2009,08,06,14,00,19.20
2009,08,06,14,01,19.30
2009,08,06,14,02,19.30
2009,08,06,14,03,19.30
2009,08,06,14,04,19.40
2009,08,06,14,05,19.30
2009,08,06,14,06,19.30
2009,08,06,14,07,19.20
2009,08,06,14,08,19.20
2009,08,06,14,09,19.30
2009,08,06,14,10,19.30
2009,08,06,14,11,19.30
2009,08,06,14,12,19.30
2009,08,06,14,13,19.40
2009,08,06,14,14,19.40
2009,08,06,14,15,19.50
2009,08,06,14,16,19.50
2009,08,06,14,17,19.50
2009,08,06,14,18,19.60
2009,08,06,14,19,19.70
2009,08,06,14,20,19.80
2009,08,06,14,21,19.90
2009,08,06,14,22,19.80
2009,08,06,14,23,19.80
2009,08,06,14,24,19.60
2009,08,06,14,25,19.50
2009,08,06,14,26,19.40
2009,08,06,14,27,19.40
2009,08,06,14,28,19.40
2009,08,06,14,29,19.30
2009,08,06,14,30,19.30
2009,08,06,14,31,19.30
2009,08,06,14,32,19.40
2009,08,06,14,33,19.40
2009,08,06,14,34,19.30
2009,08,06,14,35,19.20
2009,08,06,14,36,19.20
2009,08,06,14,37,19.20
2009,08,06,14,38,19.30
2009,08,06,14,39,19.30
2009,08,06,14,40,19.30
2009,08,06,14,41,19.30
2009,08,06,14,42,19.30
2009,08,06,14,43,19.50
2009,08,06,14,44,19.60
2009,08,06,14,45,19.70
2009,08,06,14,46,19.70
2009,08,06,14,47,19.60
2009,08,06,14,48,19.50
2009,08,06,14,49,19.40
2009,08,06,14,50,19.20
2009,08,06,14,51,19.20
2009,08,06,14,52,19.20
2009,08,06,14,53,19.20
2009,08,06,14,54,19.30
2009,08,06,14,55,19.40
2009,08,06,14,56,19.50
2009,08,06,14,57,19.60
2009,08,06,14,58,19.80
2009,08,06,14,59,19.90
2009,08,06,15,00,20.10
2009,08,06,15,01,20.20
2009,08,06,15,02,20.30
2009,08,06,15,03,20.30
2009,08,06,15,04,20.30
2009,08,06,15,05,20.40
2009,08,06,15,06,20.40
2009,08,06,15,07,20.40
2009,08,06,15,08,20.50
2009,08,06,15,09,20.50
2009,08,06,15,10,20.50
2009,08,06,15,11,20.50
2009,08,06,15,12,20.50
2009,08,06,15,13,20.40
2009,08,06,15,14,20.40
2009,08,06,15,15,20.40
2009,08,06,15,16,20.40
2009,08,06,15,17,20.50
2009,08,06,15,18,20.50
2009,08,06,15,19,20.50
2009,08,06,15,20,20.40
2009,08,06,15,21,20.40
2009,08,06,15,22,20.40
2009,08,06,15,23,20.40
2009,08,06,15,24,20.40
2009,08,06,15,25,20.40
2009,08,06,15,26,20.30
2009,08,06,15,27,20.30
2009,08,06,15,28,20.30
2009,08,06,15,29,20.30
2009,08,06,15,30,20.30
2009,08,06,15,31,20.30
2009,08,06,15,32,20.30
2009,08,06,15,33,20.40
2009,08,06,15,34,20.40
2009,08,06,15,35,20.40
2009,08,06,15,36,20.30
2009,08,06,15,37,20.40
2009,08,06,15,38,20.40
2009,08,06,15,39,20.30
2009,08,06,15,40,20.30
2009,08,06,15,41,20.30
2009,08,06,15,42,20.30
2009,08,06,15,43,20.30
2009,08,06,15,44,20.20
2009,08,06,15,45,19.90
2009,08,06,15,46,19.80
2009,08,06,15,47,19.80
2009,08,06,15,48,19.80
2009,08,06,15,49,19.70
2009,08,06,15,50,19.70
2009,08,06,15,51,19.50
2009,08,06,15,52,19.40
2009,08,06,15,53,19.40
2009,08,06,15,54,19.40
2009,08,06,15,55,19.40
2009,08,06,15,56,19.30
2009,08,06,15,57,19.30
2009,08,06,15,58,19.30
2009,08,06,15,59,19.20
2009,08,06,16,00,19.20
2009,08,06,16,01,19.20
2009,08,06,16,02,19.20
2009,08,06,16,03,19.20
2009,08,06,16,04,19.30
2009,08,06,16,05,19.30
2009,08,06,16,06,19.30
2009,08,06,16,07,19.30
2009,08,06,16,08,19.30
2009,08,06,16,09,19.30
2009,08,06,16,10,19.30
2009,08,06,16,11,19.20
2009,08,06,16,12,19.20
2009,08,06,16,13,19.10
2009,08,06,16,14,19.10
2009,08,06,16,15,19.00
2009,08,06,16,16,19.10
2009,08,06,16,17,19.10
2009,08,06,16,18,19.00
2009,08,06,16,19,19.00
2009,08,06,16,20,19.00
2009,08,06,16,21,19.10
2009,08,06,16,22,19.10
2009,08,06,16,23,19.10
2009,08,06,16,24,19.10
2009,08,06,16,25,19.10
2009,08,06,16,26,19.10
2009,08,06,16,27,19.10
2009,08,06,16,28,19.10
2009,08,06,16,29,19.20
2009,08,06,16,30,19.20
2009,08,06,16,31,19.10
2009,08,06,16,32,19.10
2009,08,06,16,33,19.10
2009,08,06,16,34,19.10
2009,08,06,16,35,19.10
2009,08,06,16,36,19.10
2009,08,06,16,37,19.10
2009,08,06,16,38,19.20
2009,08,06,16,39,19.20
2009,08,06,16,40,19.20
2009,08,06,16,41,19.20
2009,08,06,16,42,19.30
2009,08,06,16,43,19.30
2009,08,06,16,44,19.30
2009,08,06,16,45,19.40
2009,08,06,16,46,19.40
2009,08,06,16,47,19.50
2009,08,06,16,48,19.50
2009,08,06,16,49,19.60
2009,08,06,16,50,19.70
2009,08,06,16,51,19.70
2009,08,06,16,52,19.70
2009,08,06,16,53,19.70
2009,08,06,16,54,19.70
2009,08,06,16,55,19.50
2009,08,06,16,56,19.50
2009,08,06,16,57,19.40
2009,08,06,16,58,19.40
2009,08,06,16,59,19.40
2009,08,06,17,00,19.40
2009,08,06,17,01,19.40
2009,08,06,17,02,19.40
2009,08,06,17,03,19.40
2009,08,06,17,04,19.40
2009,08,06,17,05,19.40
2009,08,06,17,06,19.40
2009,08,06,17,07,19.40
2009,08,06,17,08,19.40
2009,08,06,17,09,19.50
2009,08,06,17,10,19.50
2009,08,06,17,11,19.50
2009,08,06,17,12,19.40
2009,08,06,17,13,19.40
2009,08,06,17,14,19.40
2009,08,06,17,15,19.40
2009,08,06,17,16,19.40
2009,08,06,17,17,19.40
2009,08,06,17,18,19.30
2009,08,06,17,19,19.20
2009,08,06,17,20,19.20
2009,08,06,17,21,19.20
2009,08,06,17,22,19.20
2009,08,06,17,23,19.20
2009,08,06,17,24,19.20
2009,08,06,17,25,19.30
2009,08,06,17,26,19.30
2009,08,06,17,27,19.30
2009,08,06,17,28,19.30
2009,08,06,17,29,19.30
2009,08,06,17,30,19.30
2009,08,06,17,31,19.30
2009,08,06,17,32,19.30
2009,08,06,17,33,19.30
2009,08,06,17,34,19.40
2009,08,06,17,35,19.40
2009,08,06,17,36,19.40
2009,08,06,17,37,19.30
2009,08,06,17,38,19.30
2009,08,06,17,39,19.30
2009,08,06,17,40,19.30
2009,08,06,17,41,19.30